Regional Weather Roundup
Issued by NWS Sioux Falls, SD

Home | Current Version | Previous Version | Graphics & Text | Print | Product List | Glossary On
Versions: 1 2 3 4 5 6 7 8 9 10 11 12 13 14 15 16 17 18 19 20 21 22 23 24 25 26 27 28 29 30 31 32 33 34 35 36 37 38 39 40 41 42 43 44 45 46 47 48 49 50
000
ASUS43 KFSD 301002
RWRFSD

WEATHER ROUNDUP FOR SE SOUTH DAKOTA/SW MINNESOTA/NW IOWA
NATIONAL WEATHER SERVICE SIOUX FALLS SD
500 AM CDT WED JUL 30 2014

NOTE: "FAIR" INDICATES FEW OR NO CLOUDS BELOW 12,000 FEET WITH NO
SIGNIFICANT WEATHER AND OR OBSTRUCTIONS TO VISIBILITY.


SDZ038>040-050-052>070-301100-
SOUTHEAST SOUTH DAKOTA

CITY           SKY/WX    TMP DP  RH WIND       PRES   REMARKS
CHAMBERLAIN    CLEAR     51  47  89 CALM      30.15S
HURON          CLEAR     50  48  93 CALM      30.14S
MADISON        FAIR      50  50 100 CALM      30.16R
MITCHELL       CLEAR     54  51  90 CALM      30.15S
SIOUX FALLS    CLEAR     54  51  90 NW3       30.15R
WINNER         FAIR      60  49  66 SW5       30.16S
YANKTON        CLEAR     55  54  94 NW3       30.14S
$$

MNZ071-072-080-081-089-090-097-098-301100-
SOUTHWEST MINNESOTA

CITY           SKY/WX    TMP DP  RH WIND       PRES   REMARKS
FAIRMONT       CLEAR     57  50  77 NW7       30.10S
JACKSON        CLEAR     54  50  87 W3        30.13R
LUVERNE        CLEAR     54  50  87 CALM      30.15R
MARSHALL       CLEAR     54  48  82 W5        30.12S
MONTEVIDEO     CLEAR     55  54  94 NW6       30.13R
PIPESTONE      CLEAR     55  54  94 CALM      30.15R
REDWOOD FALLS  CLEAR     56  53  90 NW8       30.11R
TRACY          CLEAR     58  53  83 W6        30.13S
WINDOM         CLEAR     54  52  94 W6        30.12F
WORTHINGTON    CLEAR     54  48  82 CALM      30.14S
$$

IAZ001>003-012>014-020>022-031-032-NEZ013-014-SDZ071-301100-
NORTHWEST IOWA

CITY           SKY/WX    TMP DP  RH WIND       PRES   REMARKS
CHEROKEE       CLEAR     53  53 100 CALM      30.13S
DENISON        CLEAR     52  52 100 CALM      30.11S
ESTHERVILLE    CLEAR     55  53  93 NW7       30.11S
LE MARS        CLEAR     50  50 100 CALM      30.14S FOG
SIOUX CITY     CLEAR     52  51  97 W3        30.14R
SPENCER        CLEAR     49  48  97 NW5       30.13S
STORM LAKE     CLEAR     57  55  94 NW7       30.13S
$$

ABBREVIATIONS USED IN REMARKS
   TC - TEMPERATURE IN CELSIUS
  WCI - WIND CHILL INDEX
   HX - HEAT INDEX
  VSB - VISIBILITY




USA.gov is the U.S. government's official web portal to all federal, state and local government web resources and services.